| time (UTC) | temp F | wind direction | speed MPH | gust MPH | rain 1hr in | rain 24hr in | rain mn in | humidity % | barometer mb |
| 20260503021703 | 56 | 61 | 2.0 | 6.0 | 0.00 | 0.00 | 0.00 | 72 | 1019.0 |
| 20260503020704 | 56 | 66 | 3.0 | 7.0 | 0.00 | 0.00 | 0.00 | 71 | 1019.0 |
| 20260503015703 | 56 | 82 | 4.0 | 8.0 | 0.00 | 0.00 | 0.00 | 72 | 1019.1 |
| 20260503014704 | 56 | 67 | 3.0 | 7.0 | 0.00 | 0.00 | 0.00 | 72 | 1019.1 |
| 20260503013707 | 56 | 66 | 2.0 | 6.0 | 0.00 | 0.00 | 0.00 | 72 | 1019.2 |
| 20260503012707 | 56 | 61 | 3.0 | 7.0 | 0.00 | 0.00 | 0.00 | 72 | 1019.2 |
| 20260503005704 | 56 | 86 | 2.0 | 3.0 | 0.00 | 0.00 | 0.00 | 72 | 1019.5 |
| 20260503003705 | 57 | 53 | 4.0 | 8.0 | 0.00 | 0.00 | 0.00 | 71 | 1019.7 |
| 20260503002703 | 56 | 82 | 3.0 | 7.0 | 0.00 | 0.00 | 0.00 | 73 | 1019.7 |
| 20260503001704 | 55 | 65 | 2.0 | 5.0 | 0.00 | 0.00 | 0.00 | 76 | 1019.9 |
| 20260503000704 | 55 | 59 | 2.0 | 5.0 | 0.00 | 0.00 | 0.00 | 75 | 1019.9 |
| 20260502235706 | 55 | 100 | 2.0 | 4.0 | 0.00 | 0.00 | 0.00 | 75 | 1020.1 |
| 20260502233703 | 56 | 107 | 2.0 | 4.0 | 0.00 | 0.00 | 0.00 | 75 | 1020.3 |
| 20260502232704 | 56 | 123 | 2.0 | 3.0 | 0.00 | 0.00 | 0.00 | 74 | 1020.3 |
| 20260502231703 | 56 | 136 | 1.0 | 3.0 | 0.00 | 0.00 | 0.00 | 75 | 1020.3 |
| 20260502230701 | 56 | 138 | 1.0 | 2.0 | 0.00 | 0.00 | 0.00 | 74 | 1020.3 |
| 20260502225706 | 56 | 138 | 1.0 | 3.0 | 0.00 | 0.00 | 0.00 | 73 | 1020.3 |
| 20260502224700 | 57 | 108 | 2.0 | 4.0 | 0.00 | 0.00 | 0.00 | 72 | 1020.3 |
| 20260502223700 | 58 | 69 | 2.0 | 4.0 | 0.00 | 0.00 | 0.00 | 69 | 1020.2 |
| 20260502222659 | 58 | 51 | 2.0 | 7.0 | 0.00 | 0.00 | 0.00 | 69 | 1020.2 |
| 20260502221657 | 57 | 133 | 1.0 | 2.0 | 0.00 | 0.00 | 0.00 | 73 | 1020.3 |
| 20260502220657 | 57 | 132 | 1.0 | 4.0 | 0.00 | 0.00 | 0.00 | 71 | 1020.2 |
| 20260502215658 | 58 | 132 | 2.0 | 4.0 | 0.00 | 0.00 | 0.00 | 71 | 1020.2 |
| 20260502214656 | 58 | 138 | 2.0 | 4.0 | 0.00 | 0.00 | 0.00 | 70 | 1020.2 |
| 20260502213655 | 59 | 103 | 2.0 | 4.0 | 0.00 | 0.00 | 0.00 | 69 | 1020.3 |
| 20260502212656 | 58 | 98 | 1.0 | 4.0 | 0.00 | 0.00 | 0.00 | 70 | 1020.3 |
| 20260502211652 | 59 | 75 | 1.0 | 3.0 | 0.00 | 0.00 | 0.00 | 68 | 1020.2 |
| 20260502210654 | 59 | 75 | 1.0 | 3.0 | 0.00 | 0.00 | 0.00 | 68 | 1020.2 |
| 20260502205654 | 60 | 49 | 2.0 | 5.0 | 0.00 | 0.00 | 0.00 | 65 | 1020.2 |
| 20260502204654 | 60 | 111 | 2.0 | 7.0 | 0.00 | 0.00 | 0.00 | 66 | 1020.1 |
| 20260502202652 | 61 | 71 | 2.0 | 4.0 | 0.00 | 0.00 | 0.00 | 65 | 1020.1 |
| 20260502200652 | 62 | 98 | 2.0 | 3.0 | 0.00 | 0.00 | 0.00 | 64 | 1020.2 |
| 20260502195652 | 62 | 138 | 3.0 | 4.0 | 0.00 | 0.00 | 0.00 | 63 | 1020.1 |
| 20260502194650 | 62 | 50 | 1.0 | 4.0 | 0.00 | 0.00 | 0.00 | 62 | 1020.1 |
| 20260502193652 | 63 | 71 | 2.0 | 4.0 | 0.00 | 0.00 | 0.00 | 62 | 1020.0 |
| 20260502192647 | 63 | 78 | 2.0 | 4.0 | 0.00 | 0.00 | 0.00 | 61 | 1019.9 |
| 20260502191646 | 63 | 94 | 2.0 | 4.0 | 0.00 | 0.00 | 0.00 | 61 | 1019.8 |
| 20260502190644 | 63 | 107 | 1.0 | 3.0 | 0.00 | 0.00 | 0.00 | 62 | 1019.7 |
| 20260502185648 | 62 | 61 | 1.0 | 3.0 | 0.00 | 0.00 | 0.00 | 62 | 1019.6 |
| 20260502183643 | 64 | 19 | 1.0 | 3.0 | 0.00 | 0.00 | 0.00 | 59 | 1019.3 |
| 20260502181648 | 66 | 250 | 1.0 | 3.0 | 0.00 | 0.00 | 0.00 | 55 | 1019.0 |
| 20260502180644 | 67 | 248 | 1.0 | 2.0 | 0.00 | 0.00 | 0.00 | 52 | 1019.0 |
| 20260502161640 | 73 | 252 | 9.0 | 16.0 | 0.00 | 0.00 | 0.00 | 43 | 1018.7 |
| 20260502160639 | 74 | 171 | 8.0 | 15.0 | 0.00 | 0.00 | 0.00 | 45 | 1018.7 |
| 20260502151633 | 74 | 249 | 10.0 | 19.0 | 0.00 | 0.00 | 0.00 | 43 | 1019.1 |
| 20260502130632 | 74 | 290 | 9.0 | 17.0 | 0.00 | 0.00 | 0.00 | 47 | 1020.5 |
| 20260502123631 | 74 | 292 | 7.0 | 15.0 | 0.00 | 0.00 | 0.00 | 47 | 1020.9 |
| 20260502122632 | 73 | 267 | 8.0 | 19.0 | 0.00 | 0.00 | 0.00 | 45 | 1021.0 |
| 20260502121632 | 73 | 213 | 8.0 | 16.0 | 0.00 | 0.00 | 0.00 | 47 | 1021.2 |
| 20260502120632 | 72 | 279 | 9.0 | 18.0 | 0.00 | 0.00 | 0.00 | 45 | 1021.3 |
| 20260502113631 | 72 | 283 | 8.0 | 14.0 | 0.00 | 0.00 | 0.00 | 48 | 1021.7 |
| 20260502111639 | 71 | 252 | 9.0 | 17.0 | 0.00 | 0.00 | 0.00 | 49 | 1022.2 |
| 20260502110629 | 71 | 239 | 8.0 | 15.0 | 0.00 | 0.00 | 0.00 | 48 | 1022.5 |
| 20260502105631 | 71 | 189 | 8.0 | 14.0 | 0.00 | 0.00 | 0.00 | 48 | 1022.7 |
| 20260502104628 | 70 | 286 | 7.0 | 14.0 | 0.00 | 0.00 | 0.00 | 48 | 1022.9 |
| 20260502102628 | 69 | 196 | 6.0 | 13.0 | 0.00 | 0.00 | 0.00 | 51 | 1023.1 |
| 20260502101626 | 70 | 250 | 6.0 | 11.0 | 0.00 | 0.00 | 0.00 | 51 | 1023.3 |
| 20260502100627 | 69 | 294 | 7.0 | 13.0 | 0.00 | 0.00 | 0.00 | 50 | 1023.4 |
| 20260502090623 | 65 | 229 | 2.0 | 6.0 | 0.00 | 0.00 | 0.00 | 56 | 1024.3 |
| 20260502070617 | 56 | 51 | 1.0 | 4.0 | 0.00 | 0.00 | 0.00 | 71 | 1025.5 |
| 20260502065615 | 55 | 55 | 3.0 | 7.0 | 0.00 | 0.00 | 0.00 | 72 | 1025.6 |
| 20260502064612 | 55 | 31 | 4.0 | 7.0 | 0.00 | 0.00 | 0.00 | 72 | 1025.6 |
| 20260502063613 | 54 | 94 | 3.0 | 9.0 | 0.00 | 0.00 | 0.00 | 73 | 1025.8 |
| 20260502062613 | 53 | 99 | 3.0 | 6.0 | 0.00 | 0.00 | 0.00 | 74 | 1025.8 |
| 20260502061614 | 53 | 106 | 3.0 | 7.0 | 0.00 | 0.00 | 0.00 | 76 | 1025.9 |
| 20260502055611 | 52 | 72 | 4.0 | 10.0 | 0.00 | 0.00 | 0.00 | 77 | 1026.1 |
| 20260502053610 | 51 | 101 | 1.0 | 4.0 | 0.00 | 0.00 | 0.00 | 79 | 1026.2 |
| 20260502052610 | 50 | 76 | 1.0 | 3.0 | 0.00 | 0.00 | 0.00 | 80 | 1026.1 |
| 20260502051608 | 49 | 60 | 1.0 | 6.0 | 0.00 | 0.00 | 0.00 | 82 | 1026.2 |
| 20260502050622 | 48 | 79 | 1.0 | 6.0 | 0.00 | 0.00 | 0.00 | 84 | 1026.1 |
| 20260502045609 | 48 | 167 | 1.0 | 4.0 | 0.00 | 0.00 | 0.00 | 83 | 1026.1 |
| 20260502044608 | 49 | 355 | 2.0 | 6.0 | 0.00 | 0.00 | 0.00 | 83 | 1026.2 |
| 20260502043608 | 48 | 277 | 1.0 | 4.0 | 0.00 | 0.00 | 0.00 | 82 | 1026.1 |
| 20260502042608 | 49 | 150 | 2.0 | 4.0 | 0.00 | 0.00 | 0.00 | 80 | 1026.0 |
| 20260502041621 | 50 | 86 | 2.0 | 4.0 | 0.00 | 0.00 | 0.00 | 80 | 1025.9 |
| 20260502040612 | 50 | 67 | 3.0 | 7.0 | 0.00 | 0.00 | 0.00 | 80 | 1025.9 |
| 20260502035611 | 50 | 115 | 2.0 | 6.0 | 0.00 | 0.00 | 0.00 | 80 | 1026.0 |
| 20260502034608 | 49 | 49 | 2.0 | 7.0 | 0.00 | 0.00 | 0.00 | 80 | 1025.9 |
| 20260502033608 | 50 | 105 | 1.0 | 4.0 | 0.00 | 0.00 | 0.00 | 79 | 1025.9 |
| 20260502031607 | 50 | 76 | 4.0 | 9.0 | 0.00 | 0.00 | 0.00 | 80 | 1026.0 |
| 20260502030608 | 48 | 66 | 1.0 | 8.0 | 0.00 | 0.00 | 0.00 | 83 | 1026.0 |
| 20260502025608 | 47 | 348 | 0.0 | 1.0 | 0.00 | 0.00 | 0.00 | 84 | 1026.0 |
| 20260502024608 | 48 | 348 | 1.0 | 2.0 | 0.00 | 0.00 | 0.00 | 82 | 1026.0 |
| 20260502023609 | 49 | 105 | 1.0 | 2.0 | 0.00 | 0.00 | 0.00 | 82 | 1025.9 |
| 20260502022608 | 49 | 350 | 0.0 | 2.0 | 0.00 | 0.00 | 0.00 | 82 | 1025.9 |